, MO

(GMT )
Kansas City

Weather History for KMKC - February, 2014

Change the Weather History Date:

Wednesday, February 19, 2014

  Actual Average Record
Temperature  
Mean Temperature 44 °F -  
Max Temperature 54 °F 44 °F 75 °F (2017)
Min Temperature 33 °F 28 °F 7 °F (2015)
Degree Days  
Heating Degree Days 22    
Moisture  
Dew Point 33 °F    
Average Humidity 66    
Maximum Humidity 86    
Minimum Humidity 32    
Precipitation  
Precipitation 0.15 in - - ()
Sea Level Pressure  
Sea Level Pressure 29.81 in    
Wind  
Wind Speed 5 mph (East)    
Max Wind Speed 20 mph    
Max Gust Speed 26 mph    
Visibility 10 miles    
Events Rain , Thunderstorm    
Averages and records for this station are not official NWS values.
T = Trace of Precipitation, MM = Missing Value Source: NWS Daily Summary

Daily Weather History Graph

Daily Weather History Graph

Search for Another Location

Airport or City:

Trip Planner

Search our weather history database for the weather conditions in past years. The results will help you decide how hot, cold, wet, or windy it might be!

Date:

Astronomy

Feb. 19, 2014 Rise Set
Actual Time 7:04 AM CST 6:00 PM CST
Civil Twilight 6:37 AM CST 6:27 PM CST
Nautical Twilight 6:06 AM CST 6:58 PM CST
Astronomical Twilight 5:35 AM CST 7:29 PM CST
Moon 10:51 PM CST (2/19) 9:13 AM CST (2/19)
Length of Visible Light 11h 49m
Length of Day
10h 55m
Waning Gibbous, 79% of the Moon is Illuminated
Feb 19
Waning Gibbous
Feb 22
Last Quarter
Mar 1
New
Mar 8
First Quarter
Mar 16
Full

Hourly Weather History & Observations

Time (CST) Temp. Windchill Dew Point Humidity Pressure Visibility Wind Dir Wind Speed Gust Speed Precip Events Conditions
12:54 AM 41.0 °F - 28.0 °F 60% 29.96 in 10.0 mi Calm Calm - N/A   Clear
1:54 AM 37.9 °F - 28.0 °F 68% 29.97 in 10.0 mi Calm Calm - N/A   Clear
2:54 AM 39.9 °F 37.8 °F 28.0 °F 63% 29.97 in 10.0 mi NW 3.5 mph - N/A   Clear
3:54 AM 37.0 °F 33.3 °F 28.0 °F 70% 29.97 in 10.0 mi South 4.6 mph - N/A   Clear
4:54 AM 33.1 °F - 28.0 °F 82% 29.96 in 10.0 mi Calm Calm - N/A   Clear
5:54 AM 34.0 °F 28.8 °F 27.0 °F 75% 30.00 in 10.0 mi SW 5.8 mph - N/A   Clear
6:54 AM 33.1 °F - 27.0 °F 78% 30.00 in 10.0 mi Calm Calm - N/A   Clear
7:54 AM 33.1 °F - 27.0 °F 78% 29.99 in 10.0 mi Calm Calm - N/A   Clear
8:54 AM 37.0 °F 33.3 °F 28.9 °F 73% 30.01 in 10.0 mi SSW 4.6 mph - N/A   Clear
9:54 AM 44.1 °F 41.5 °F 30.0 °F 58% 30.01 in 10.0 mi WSW 4.6 mph - N/A   Clear
10:54 AM 48.0 °F - 30.0 °F 50% 29.99 in 10.0 mi Calm Calm - N/A   Clear
11:54 AM 51.1 °F - 30.0 °F 44% 29.95 in 10.0 mi SE 8.1 mph - N/A   Clear
12:54 PM 54.0 °F - 26.1 °F 34% 29.91 in 10.0 mi SE 8.1 mph - N/A   Clear
1:54 PM 54.0 °F - 26.1 °F 34% 29.87 in 10.0 mi SE 9.2 mph - N/A   Clear
2:54 PM 53.1 °F - 24.1 °F 32% 29.82 in 10.0 mi ESE 12.7 mph 17.3 mph N/A   Clear
3:54 PM 52.0 °F - 26.1 °F 37% 29.81 in 10.0 mi ESE 11.5 mph - N/A   Mostly Cloudy
4:54 PM 51.1 °F - 32.0 °F 48% 29.78 in 10.0 mi East 8.1 mph - N/A   Scattered Clouds
5:22 PM 48.9 °F - 34.0 °F 56% 29.80 in 10.0 mi North 9.2 mph - N/A Thunderstorm Overcast
5:37 PM 46.9 °F - 37.0 °F 68% 29.81 in 10.0 mi NE 8.1 mph - N/A   Overcast
5:50 PM 46.4 °F 40.7 °F 37.4 °F 71% 29.78 in 9.0 mi ENE 12.7 mph - N/A Thunderstorm Thunderstorm
5:54 PM 46.9 °F - 37.9 °F 71% 29.74 in 7.0 mi East 19.6 mph 26.5 mph N/A Thunderstorm Thunderstorm
6:11 PM 46.0 °F 39.3 °F 37.9 °F 73% 29.72 in 7.0 mi East 16.1 mph 24.2 mph 0.05 in Rain Rain
6:54 PM 45.0 °F 39.3 °F 37.9 °F 76% 29.73 in 10.0 mi East 11.5 mph - 0.05 in Rain Rain
7:54 PM 45.0 °F 38.5 °F 37.9 °F 76% 29.70 in 10.0 mi East 13.8 mph - 0.00 in Rain Rain
8:54 PM 45.0 °F 40.1 °F 37.9 °F 76% 29.68 in 10.0 mi East 9.2 mph - 0.00 in Rain Rain
9:54 PM 46.0 °F 40.2 °F 36.0 °F 68% 29.62 in 10.0 mi East 12.7 mph - 0.00 in Rain Light Rain
10:22 PM 45.0 °F 39.7 °F 37.0 °F 74% 29.60 in 10.0 mi East 10.4 mph - 0.01 in Rain , Thunderstorm Light Rain
10:34 PM 45.0 °F 41.8 °F 37.0 °F 74% 29.61 in 5.0 mi East 5.8 mph - 0.06 in Rain , Thunderstorm Heavy Thunderstorms and Rain
10:49 PM 44.6 °F 40.2 °F 37.4 °F 76% 29.60 in 8.0 mi East 8.1 mph - 0.08 in Rain , Thunderstorm Light Rain
10:54 PM 44.1 °F 39.5 °F 37.9 °F 79% 29.60 in 9.0 mi ENE 8.1 mph - 0.09 in Rain Light Rain
11:30 PM 44.1 °F 42.5 °F 39.0 °F 82% 29.58 in 10.0 mi NE 3.5 mph - 0.01 in Rain Light Rain
11:40 PM 43.0 °F 39.5 °F 39.0 °F 86% 29.56 in 10.0 mi ENE 5.8 mph - 0.01 in   Overcast
11:54 PM 43.0 °F 38.8 °F 39.0 °F 86% 29.56 in 10.0 mi East 6.9 mph - 0.01 in   Overcast